This demonstration page uses our WeatherBlox Daily Observations layout. Learn more.

38.80484, -77.04692

Hourly Observations for April 24, 2019

Temp ( °F °C ) Dew Point ( °F °C ) Humidity (%) Winds ( mph kmh ) Pressure ( in mb ) Visibility ( mi km ) Precip ( " mm )
12:52 am 00:52 Mostly Cloudy 67 19.4 55 12.8 66 66 S 9 15 29.79 1009 10 16.0934 0 0
1:52 am 01:52 Cloudy 67 19.4 55 12.8 66 66 SSW 6 9 29.78 1008 10 16.0934 0 0
2:52 am 02:52 Clear 67 19.4 56 13.3 68 68 S 7 11 29.78 1008 10 16.0934 0 0
3:52 am 03:52 Cloudy 68 20 54 12.2 61 61 W 8 13 29.78 1008 10 16.0934 0 0
4:52 am 04:52 Cloudy 73 22.8 54 12.2 51 51 WNW 8 13 29.77 1008 10 16.0934 0 0
5:52 am 05:52 Cloudy 73 22.8 55 12.8 53 53 VRB 5 7 29.78 1009 10 16.0934 0 0
6:52 am 06:52 Mostly Cloudy 72 22.2 55 12.8 55 55 WNW 8 13 29.81 1010 10 16.0934 0 0
7:52 am 07:52 Mostly Cloudy 70 21.1 52 11.1 53 53 NW 14 22 29.84 1011 10 16.0934 0 0
8:52 am 08:52 Mostly Cloudy 66 18.9 49 9.4 54 54 N 12 19 29.88 1012 10 16.0934 0 0
9:52 am 09:52 Mostly Cloudy 66 18.9 47 8.3 50 50 NNW 17 28 29.89 1012 10 16.0934 0 0
10:52 am 10:52 Mostly Cloudy 66 18.9 47 8.3 50 50 NNW 17 28 29.89 1012 10 16.0934 0 0
11:52 am 11:52 Mostly Cloudy 70 21.1 46 7.8 42 42 NNW 10 17 29.89 1012 10 16.0934 0 0
12:52 pm 12:52 Mostly Cloudy 72 22.2 43 6.1 35 35 W 13 20 29.88 1012 10 16.0934 0 0
1:52 pm 13:52 Mostly Cloudy 75 23.9 44 6.7 33 33 W 10 17 29.86 1011 10 16.0934 0 0
2:52 pm 14:52 Mostly Cloudy 76 24.4 39 3.9 26 26 WNW 12 19 29.84 1011 10 16.0934 0 0
3:52 pm 15:52 Mostly Cloudy 77 25 39 3.9 26 26 NNW 9 15 29.83 1010 10 16.0934 0 0
4:52 pm 16:52 Mostly Cloudy 76 24.4 38 3.3 25 25 NNW 7 11 29.84 1010 10 16.0934 0 0
5:52 pm 17:52 Mostly Cloudy 75 23.9 40 4.4 28 28 N 9 15 29.83 1010 10 16.0934 0 0
6:52 pm 18:52 Cloudy 73 22.8 40 4.4 30 30 N 6 9 29.84 1011 10 16.0934 0 0
7:52 pm 19:52 Cloudy 73 22.8 36 2.2 26 26 VRB 3 6 29.85 1011 10 16.0934 0 0
8:52 pm 20:52 Cloudy 70 21.1 45 7.2 41 41 Calm 29.85 1011 10 16.0934 0 0
9:52 pm 21:52 Cloudy 68 20 48 8.9 49 49 Calm 29.88 1012 10 16.0934 0 0
10:52 pm 22:52 Mostly Cloudy 66 18.9 50 10 56 56 N 3 6 29.89 1012 10 16.0934 0 0
11:52 pm 23:52 Cloudy 65 18.3 51 10.6 61 61 NNE 3 6 29.91 1013 10 16.0934 0 0

Powered by AerisWeather